User: anonymous   Login
Location: Solon
(41.3849°N, 81.4081°W)
Time: 23:35:25
(UTC-04:00)
Language:

CZ-2C R/B - Orbit

View from above orbital plane
View from above orbital plane
View from above satellite
View from above satellite

Ground track
Ground track

The orbit data is extracted from the following two-line orbital elements,

1 28480U 04046B   16243.96726317 +.00000002 +00000-0 +16592-4 0  9992
2 28480 098.1888 352.9550 0142066 001.5802 113.4155 14.25604475612861
Epoch (UTC): 30 August 2016 23:12:51
Eccentricity: 0.0142066
inclination: 98.1888°
perigee height: 704 km
apogee height: 908 km
right ascension of ascending node: 352.9550°
argument of perigee: 1.5802°
revolutions per day: 14.25604475
mean anomaly at epoch: 113.4155°
orbit number at epoch: 61286

The dashed part of the orbit path shows where the satellite is in the earth's shadow,  

DLR